Location: DARK SKY Beskydy - Park tmavé oblohy, www.darkskybeskydy.cz
(49.4926°N, 18.5016°E)
Time: 11:10:03
(UTC+02:00)

Vanguard 1 - Pass Details

Date: 29 February 2024
Orbit: 653 x 3825 km, 34.2° (Epoch: 12 April)

Event Time Altitude Azimuth Distance (km) Brightness Sun altitude
Rises 17:11:33 0° 204° (SSW) 4,542 14.1 1.7°
Reaches altitude 10° 17:14:48 10° 191° (S) 3,957 13.5 1.2°
Maximum altitude 17:23:20 26° 140° (SE) 3,792 12.8 -0.1°
Drops below altitude 10° 17:36:06 10° 94° (E) 6,096 13.5 -2.2°
Enters shadow 17:40:53 - 87° (E) 7,130 13.7 -2.9°
Sets 17:42:51 0° 85° (E) 7,547 - -3.3°
